TimeCET,TemperatureF,Dew PointF,Humidity,Sea Level PressureIn,VisibilityMPH,Wind Direction,Wind SpeedMPH,Gust SpeedMPH,PrecipitationIn,Events,Conditions,WindDirDegrees,DateUTC
12:15 AM,55.4,51.8,88,30.06,6.2,SSE,13.8,-,N/A,Rain,Light Rain,160,2012-12-14 23:15:00
12:45 AM,55.4,51.8,88,30.06,6.2,SSE,11.5,-,N/A,,Scattered Clouds,160,2012-12-14 23:45:00
1:15 AM,55.4,51.8,88,30.06,6.2,SSE,12.7,-,N/A,,Scattered Clouds,160,2012-12-15 00:15:00
1:45 AM,53.6,51.8,94,30.06,6.2,SSE,11.5,-,N/A,,Scattered Clouds,160,2012-12-15 00:45:00
2:15 AM,55.4,51.8,88,30.06,6.2,SSE,11.5,-,N/A,,Mostly Cloudy,160,2012-12-15 01:15:00
2:45 AM,55.4,53.6,94,30.06,6.2,SSE,12.7,-,N/A,,Mostly Cloudy,160,2012-12-15 01:45:00
3:15 AM,55.4,51.8,88,30.06,6.2,SSE,12.7,-,N/A,,Mostly Cloudy,160,2012-12-15 02:15:00
3:45 AM,55.4,51.8,88,30.06,6.2,SSE,13.8,-,N/A,,Mostly Cloudy,160,2012-12-15 02:45:00
4:15 AM,55.4,53.6,94,30.06,6.2,SSE,13.8,-,N/A,,Mostly Cloudy,160,2012-12-15 03:15:00
4:45 AM,55.4,51.8,88,30.04,6.2,SSE,16.1,-,N/A,,Mostly Cloudy,160,2012-12-15 03:45:00
5:15 AM,55.4,51.8,88,30.04,6.2,SSE,16.1,27.6,N/A,,Mostly Cloudy,160,2012-12-15 04:15:00
5:45 AM,55.4,53.6,94,30.04,6.2,South,13.8,-,N/A,,Mostly Cloudy,170,2012-12-15 04:45:00
6:15 AM,55.4,51.8,88,30.06,6.2,SSE,12.7,-,N/A,,Mostly Cloudy,160,2012-12-15 05:15:00
6:45 AM,55.4,51.8,88,30.06,6.2,South,13.8,-,N/A,Rain,Light Rain,170,2012-12-15 05:45:00
7:15 AM,55.4,53.6,94,30.06,6.2,SSE,13.8,-,N/A,Rain,Light Rain,160,2012-12-15 06:15:00
7:45 AM,55.4,51.8,88,30.06,6.2,SSE,12.7,-,N/A,,Mostly Cloudy,160,2012-12-15 06:45:00
8:15 AM,55.4,51.8,88,30.06,5.0,SSE,15.0,-,N/A,Rain,Light Rain,160,2012-12-15 07:15:00
8:45 AM,55.4,51.8,88,30.06,5.0,SSE,13.8,-,N/A,Rain,Light Rain,150,2012-12-15 07:45:00
9:15 AM,55.4,51.8,88,30.06,5.0,SSE,13.8,-,N/A,Rain,Light Rain,160,2012-12-15 08:15:00
9:45 AM,57.2,53.6,88,30.06,5.0,SSE,17.3,-,N/A,,Mostly Cloudy,160,2012-12-15 08:45:00
10:15 AM,57.2,53.6,88,30.06,5.0,SSE,16.1,-,N/A,,Mostly Cloudy,160,2012-12-15 09:15:00
10:45 AM,57.2,51.8,82,30.04,5.0,SSE,16.1,-,N/A,Rain,Light Rain,150,2012-12-15 09:45:00
11:15 AM,57.2,53.6,88,30.04,5.0,South,16.1,-,N/A,Rain,Light Rain,170,2012-12-15 10:15:00
11:45 AM,55.4,53.6,94,30.04,5.0,South,13.8,-,N/A,Rain,Light Rain,170,2012-12-15 10:45:00
12:15 PM,55.4,53.6,94,30.04,5.0,South,11.5,-,N/A,Rain,Light Rain,180,2012-12-15 11:15:00
12:45 PM,55.4,53.6,94,30.04,5.0,South,12.7,-,N/A,Rain,Light Rain,170,2012-12-15 11:45:00
1:15 PM,55.4,53.6,94,30.04,5.0,South,13.8,-,N/A,Rain,Light Rain,170,2012-12-15 12:15:00
1:45 PM,57.2,55.4,94,30.04,5.0,South,12.7,-,N/A,,Mostly Cloudy,170,2012-12-15 12:45:00
2:15 PM,57.2,55.4,94,30.01,5.0,South,15.0,-,N/A,,Mostly Cloudy,180,2012-12-15 13:15:00
2:45 PM,55.4,53.6,94,30.01,4.3,South,11.5,-,N/A,Rain,Light Rain,180,2012-12-15 13:45:00
3:15 PM,55.4,53.6,94,30.01,4.3,South,12.7,-,N/A,Rain,Light Rain,170,2012-12-15 14:15:00
3:45 PM,55.4,53.6,94,30.01,4.3,South,13.8,-,N/A,Rain,Light Rain,170,2012-12-15 14:45:00
4:15 PM,55.4,51.8,88,30.01,4.3,SSE,12.7,-,N/A,,Mostly Cloudy,160,2012-12-15 15:15:00
4:45 PM,55.4,51.8,88,30.01,4.3,SSE,11.5,-,N/A,Rain,Light Rain,160,2012-12-15 15:45:00
5:15 PM,55.4,51.8,88,30.01,4.3,SSE,15.0,-,N/A,Rain,Light Rain,150,2012-12-15 16:15:00
5:45 PM,55.4,51.8,88,30.01,4.3,SSE,15.0,-,N/A,Rain,Light Rain,150,2012-12-15 16:45:00
6:15 PM,57.2,53.6,88,29.98,3.7,SSE,17.3,-,N/A,Rain,Light Rain,150,2012-12-15 17:15:00
6:45 PM,57.2,53.6,88,29.98,3.7,SSE,16.1,-,N/A,Rain,Light Rain,160,2012-12-15 17:45:00
7:15 PM,57.2,53.6,88,30.01,3.7,SSE,16.1,-,N/A,Rain,Light Rain,150,2012-12-15 18:15:00
7:45 PM,57.2,55.4,94,30.01,3.7,SSE,16.1,-,N/A,Rain,Light Rain,160,2012-12-15 18:45:00
8:15 PM,57.2,55.4,94,30.01,4.3,SSE,12.7,-,N/A,Rain,Light Rain,160,2012-12-15 19:15:00
8:45 PM,57.2,55.4,94,30.01,4.3,SSE,12.7,-,N/A,Rain,Light Rain,160,2012-12-15 19:45:00
9:15 PM,59.0,55.4,88,30.01,5.0,SSE,10.4,-,N/A,Rain,Light Rain,160,2012-12-15 20:15:00
9:45 PM,59.0,55.4,88,30.01,5.6,SSE,11.5,-,N/A,Rain,Light Rain,160,2012-12-15 20:45:00
10:15 PM,59.0,55.4,88,30.01,5.6,South,9.2,-,N/A,Rain,Light Rain,170,2012-12-15 21:15:00
10:45 PM,59.0,55.4,88,30.01,5.6,South,9.2,-,N/A,,Scattered Clouds,180,2012-12-15 21:45:00
11:15 PM,59.0,55.4,88,30.01,5.6,South,8.1,-,N/A,,Scattered Clouds,170,2012-12-15 22:15:00
11:45 PM,59.0,55.4,88,30.01,5.6,South,8.1,-,N/A,,Scattered Clouds,170,2012-12-15 22:45:00